"Pseudo-MPEC" for P11XzIQ

Created 2024 Sep 11 3:22:10 UT using Find_Orb

Click here for an explanation of pseudo-MPECs

 
 Astrometry: 
     P11XzIQ* C2024 08 27.53669700 23 48.536-04 48 43.34   ~8RFq 21.20wXNEOCPF51
     P11XzIQ  C2024 08 27.55772500 23 43.337-04 46 38.26   ~8RFq 21.27wXNEOCPF51
     P11XzIQ  C2024 08 27.56824000 23 40.722-04 45 35.40   ~8RFq 21.22wXNEOCPF51
     P11XzIQ 1C2024 08 27.99452 00 22 03.20 -04 02 47.8    ~8SFq 21.5 VXNEOCP033
     P11XzIQ 1C2024 08 27.99672 00 22 02.68 -04 02 34.4    ~8SFq 21.5 VXNEOCP033

Station data:
(033) Karl Schwarzschild Observatory, Tautenburg  (N50.980139 E11.711240)
   Germany.  Observer B. Stecklum. 1.34-m f/3 Schmidt + CCD.
(F51) Pan-STARRS 1, Haleakala  (N20.707234 W156.255910)  US/Hawaii.
   Observers J. Bulger, T. Lowe, A. Schultz, M. Willman. Measurers K.
   Chambers, S. Chastel, T. de Boer, L. Denneau, J. Fairlamb, H. Flewelling,
   M. Huber, C.-C. Lin, E. Magnier, Y. Ramanjooloo, R. Wainscoat, R. Weryk.
   1.8-m Ritchey-Chrétien + CCD.

Orbital elements:  P11XzIQ
   Perihelion 2024 Nov 28.50820 +/- 3.18 TT = 12:11:48 (JD 2460643.00820)
Epoch 2024 Aug 28.0 TT = JDT 2460550.5   Earth MOID: 0.0635      AutoNEOCP
M 284.43573951 +/- 2.6              (J2000 ecliptic)
n   0.81683848 +/- 0.0251           Peri.  110.20819 +/- 4.1
a   1.13338793 +/- 0.0232           Node   340.54644 +/- 0.17
e   0.3191873 +/- 0.0422            Incl.   25.04715 +/- 0.8
P   1.207/440.715d         H 23.65  G  0.15   U 10.3
q 0.77162486 +/- 0.0578    Q 1.49515100 +/- 0.0409
From 5 observations 2024 Aug. 27 (11.0 hr); mean residual 0".13
Residuals in arcseconds: 
240827 F51  .03-  .03+    240827 F51  .07-  .05+    240827 033  .25+  .10-    
240827 F51  .10+  .09-    240827 033  .25-  .10+    

Ephemerides (geocentric):
Date (UTC) HH   RA             Dec           delta  r     elong  mag " sig PA
---- --------  ------------   ------------  ------ ------ -----  --- --------
2024 09 11 03  22 15 14.001   +37 38 55.14  .10498 1.0839 135.4 20.5 169' 138
2024 09 11 04  22 14 32.026   +37 47 39.89  .10499 1.0837 135.2 20.5 170' 138
2024 09 11 05  22 13 49.900   +37 56 23.45  .10501 1.0835 135.0 20.5 171' 137
2024 09 11 06  22 13 07.623   +38 05 05.81  .10502 1.0833 134.8 20.5 172' 137
2024 09 11 07  22 12 25.196   +38 13 46.94  .10504 1.0830 134.6 20.6 173' 137
2024 09 11 08  22 11 42.618   +38 22 26.83  .10505 1.0828 134.5 20.6 174' 137
2024 09 11 09  22 10 59.890   +38 31 05.45  .10507 1.0826 134.3 20.6 175' 137
2024 09 11 10  22 10 17.011   +38 39 42.78  .10509 1.0824 134.1 20.6 176' 137
2024 09 11 11  22 09 33.982   +38 48 18.81  .10511 1.0821 133.9 20.6 177' 137
2024 09 11 12  22 08 50.803   +38 56 53.51  .10513 1.0819 133.7 20.6 178' 137
2024 09 11 13  22 08 07.474   +39 05 26.86  .10516 1.0817 133.5 20.6 179' 137
2024 09 11 14  22 07 23.995   +39 13 58.85  .10518 1.0815 133.3 20.6 180' 136
2024 09 11 15  22 06 40.366   +39 22 29.45  .10521 1.0813 133.2 20.6 181' 136
2024 09 11 16  22 05 56.588   +39 30 58.64  .10524 1.0810 133.0 20.6 181' 136
2024 09 11 17  22 05 12.661   +39 39 26.41  .10527 1.0808 132.8 20.6 182' 136
2024 09 11 18  22 04 28.585   +39 47 52.73  .10530 1.0806 132.6 20.6 183' 136
2024 09 11 19  22 03 44.360   +39 56 17.59  .10533 1.0804 132.4 20.6 184' 136
2024 09 11 20  22 02 59.987   +40 04 40.97  .10536 1.0801 132.2 20.6 185' 136
2024 09 11 21  22 02 15.465   +40 13 02.84  .10539 1.0799 132.0 20.6 186' 136
2024 09 11 22  22 01 30.795   +40 21 23.19  .10543 1.0797 131.9 20.6 187' 135
2024 09 11 23  22 00 45.977   +40 29 42.00  .10547 1.0795 131.7 20.6 188' 135
2024 09 12 00  22 00 01.012   +40 37 59.25  .10550 1.0792 131.5 20.6 189' 135
2024 09 12 01  21 59 15.900   +40 46 14.93  .10554 1.0790 131.3 20.6 190' 135
2024 09 12 02  21 58 30.641   +40 54 29.01  .10558 1.0788 131.1 20.6 191' 135
2024 09 12 03  21 57 45.236   +41 02 41.47  .10562 1.0786 130.9 20.7 192' 135
2024 09 12 04  21 56 59.685   +41 10 52.31  .10567 1.0784 130.7 20.7 193' 135
2024 09 12 05  21 56 13.988   +41 19 01.49  .10571 1.0781 130.6 20.7 193' 135
2024 09 12 06  21 55 28.146   +41 27 09.00  .10576 1.0779 130.4 20.7 194' 134
2024 09 12 07  21 54 42.158   +41 35 14.83  .10580 1.0777 130.2 20.7 195' 134
2024 09 12 08  21 53 56.027   +41 43 18.96  .10585 1.0775 130.0 20.7 196' 134
2024 09 12 09  21 53 09.751   +41 51 21.37  .10590 1.0772 129.8 20.7 197' 134
2024 09 12 10  21 52 23.331   +41 59 22.04  .10595 1.0770 129.6 20.7 198' 134
2024 09 12 11  21 51 36.769   +42 07 20.95  .10600 1.0768 129.4 20.7 199' 134
2024 09 12 12  21 50 50.064   +42 15 18.09  .10606 1.0766 129.2 20.7 200' 134
2024 09 12 13  21 50 03.217   +42 23 13.45  .10611 1.0763 129.1 20.7 201' 134
2024 09 12 14  21 49 16.228   +42 31 07.00  .10617 1.0761 128.9 20.7 202' 133
2024 09 12 15  21 48 29.098   +42 38 58.73  .10622 1.0759 128.7 20.7 202' 133
2024 09 12 16  21 47 41.827   +42 46 48.63  .10628 1.0757 128.5 20.7 203' 133
2024 09 12 17  21 46 54.417   +42 54 36.67  .10634 1.0754 128.3 20.7 204' 133
2024 09 12 18  21 46 06.867   +43 02 22.84  .10640 1.0752 128.1 20.7 205' 133
2024 09 12 19  21 45 19.178   +43 10 07.13  .10646 1.0750 127.9 20.7 206' 133
2024 09 12 20  21 44 31.351   +43 17 49.52  .10653 1.0748 127.8 20.7 207' 133
2024 09 12 21  21 43 43.386   +43 25 29.99  .10659 1.0746 127.6 20.8 208' 132
2024 09 12 22  21 42 55.285   +43 33 08.54  .10666 1.0743 127.4 20.8 208' 132
2024 09 12 23  21 42 07.047   +43 40 45.14  .10672 1.0741 127.2 20.8 209' 132
2024 09 13 00  21 41 18.674   +43 48 19.78  .10679 1.0739 127.0 20.8 210' 132
2024 09 13 01  21 40 30.166   +43 55 52.45  .10686 1.0737 126.8 20.8 211' 132
2024 09 13 02  21 39 41.523   +44 03 23.13  .10693 1.0734 126.7 20.8 212' 132